#timestamp,LO_Frequency,Hit,StdDev 
1605204015.5,286047000.7,N
1605204035.3,286047002.2,N
1605204055.2,286047001.4,N
1605204075.0,286047002.7,N
1605204075.9,286047002.7,N
1605204095.7,286047004.1,N
1605204115.6,286047005.9,N
1605204135.4,286047002.9,N
1605204155.3,286047005.4,N
1605204175.1,286047005.9,N
1605204195.9,286047004.1,N
1605204215.7,286046996.5,N
1605204235.5,286046996.1,N
1605204255.4,286046995.0,N
1605204275.2,286047000.9,N
1605204295.1,286046999.4,N
1605204296.0,286046999.4,N
1605204315.8,286047002.3,N
1605204335.6,286047001.3,N
1605204355.5,286047003.0,N
1605204375.3,286047003.5,N
1605204395.1,286047005.0,N
1605204415.9,286047003.8,N
1605204435.7,286047002.9,N
1605204455.6,286047001.4,N
1605204475.4,286047001.2,N
1605204495.2,286047001.0,N
1605204515.1,286046998.8,N
1605204516.0,286046998.8,N
1605204535.8,286046994.9,N
1605204555.7,286046993.3,N
1605204575.5,286046994.1,N
1605204595.3,286046993.1,N
1605204615.2,286046990.5,N
1605204635.0,286046992.6,N
1605204635.9,286046992.6,N
1605204655.7,286046994.1,N
1605204675.6,286046991.9,N
1605204695.4,286046990.3,N
1605204715.3,286046993.5,N
1605204765.1,286046996.2,E
1605204775.1,286046999.2,N
1605204776.0,286046999.2,P
1605204795.8,286046997.0,P
1605204815.6,286046996.5,Y
1605204835.5,286046999.5,P
1605204855.3,286046999.2,N
1605204875.1,286046996.2,P
1605204895.9,286046994.9,Y
1605204915.7,286046996.1,P
1605204935.6,286046998.0,N
1605204955.4,286046993.5,P
1605204975.2,286046997.4,N
1605204995.1,286046996.1,N
1605204996.0,286046996.1,N
1605205015.8,286046995.0,Y
1605205035.7,286046997.0,P
1605205055.5,286046995.9,P
1605205075.3,286046993.6,P
1605205095.2,286046993.1,Y
1605205115.0,286046994.5,P
1605205115.9,286046994.5,P
1605205135.7,286046990.6,P
1605205155.6,286046991.9,Y
1605205175.4,286046996.5,P
1605205195.3,286046994.5,P
1605205215.1,286046993.5,P
1605205235.9,286046996.1,Y
1605205255.7,286046999.8,P
1605205275.5,286046996.6,N
1605205295.4,286046997.3,N
1605205315.2,286047000.4,N
1605205335.0,286047000.8,N
1605205335.9,286047000.8,N
1605205355.8,286047003.6,N
1605205375.6,286047000.5,N
1605205395.5,286046996.7,N
1605205415.3,286046999.5,N
1605205435.1,286046996.3,N
1605205455.9,286046996.4,N
1605205475.7,286046996.5,N
1605205495.6,286046995.7,N
1605205515.4,286046994.9,N
1605205535.2,286046998.1,N
1605205555.1,286047002.4,N
1605205556.0,286047002.4,N
1605205575.8,286046998.1,N
1605205595.6,286047000.2,N
1605205615.5,286047001.3,N
1605205635.3,286047000.1,N
1605205655.2,286047002.3,N
1605205675.9,286046999.7,N
1605205695.7,286047000.3,N
1605205715.6,286047001.0,N
1605205735.4,286047001.1,N
1605205755.3,286047001.1,N
1605205775.1,286047000.4,N
1605205776.0,286047000.4,N
1605205795.8,286047000.2,N
1605205815.7,286047002.8,N
1605205835.5,286046999.8,N
1605205855.3,286047000.9,N
1605205875.2,286046998.2,N
1605205895.0,286046998.9,N
1605205895.9,286046998.9,N
1605205915.8,286046997.3,N
1605205935.6,286046997.0,N
1605205955.4,286046999.4,N
1605205975.3,286046997.6,N
1605205995.1,286046995.8,N
1605206015.9,286046992.9,Y
1605206035.7,286046989.1,P
1605206055.5,286046989.9,N
1605206075.4,286046985.6,P
1605206095.2,286046988.0,N
1605206115.1,286046989.1,N
1605206116.0,286046989.1,N
1605206135.8,286046990.8,N
1605206155.6,286046990.1,N
1605206175.5,286046987.2,Y
1605206195.3,286046999.0,P
1605206215.2,286047000.9,N
1605206235.9,286047002.1,N
1605206255.7,286047005.3,N
1605206275.6,286047006.3,N
1605206295.4,286047007.0,N
1605206315.2,286047007.0,N
1605206335.1,286047010.7,N
1605206336.0,286047010.7,N
1605206355.8,286047010.5,N
1605206375.7,286047010.0,N
1605206395.5,286047010.2,N
1605206415.3,286047011.4,N
1605206435.2,286047012.1,N
1605206455.0,286047012.0,N
1605206455.9,286047012.0,N
1605206475.8,286047011.0,N
1605206495.6,286047010.8,N
1605206515.4,286047008.2,N
1605206535.3,286047013.1,N
1605206555.1,286047014.3,N
1605206575.9,286047014.1,N
1605206595.7,286047017.6,Y
1605206615.5,286047010.4,P
1605206635.4,286047007.2,P
1605206655.2,286047006.8,P
1605206675.1,286047009.1,Y
1605206676.0,286047009.1,P
1605206695.8,286047001.6,P
1605206715.6,286047002.2,N
1605206735.5,286047002.4,N
1605206755.3,286046998.9,N
1605206775.2,286046998.5,N
1605206795.9,286047000.1,N
1605206815.7,286047002.1,N
1605206835.6,286047003.8,N
1605206855.4,286047003.1,N
1605206905.3,286047001.7,E
1605206915.2,286047003.8,N
1605206935.0,286047002.7,P
1605206935.9,286047002.7,P
1605206955.8,286047002.6,Y
1605206975.6,286046996.8,P
1605206995.5,286047001.0,N
1605207015.3,286047001.1,N
1605207035.1,286046997.7,N
1605207055.9,286046996.4,N
1605207075.7,286046992.3,Y
1605207095.5,286046994.2,P
1605207115.4,286046992.9,N
1605207135.2,286046990.8,P
1605207155.1,286046995.8,N
1605207156.0,286046995.8,N
1605207175.8,286046999.3,N
1605207195.7,286046997.2,N
1605207215.5,286046995.0,N
1605207235.3,286046997.6,N
1605207255.2,286046996.9,N
1605207275.0,286046997.8,N
1605207275.9,286046997.8,N
1605207295.8,286046995.3,N
1605207315.6,286046991.7,Y
1605207335.4,286047000.1,P
1605207355.3,286047001.6,N
1605207375.1,286047003.6,N
1605207395.8,286047006.6,N
1605207415.7,286047009.2,N
1605207435.5,286047009.3,N
1605207455.4,286047013.6,N
1605207475.2,286047016.1,Y
1605207495.0,286047014.4,P
1605207495.9,286047014.4,P
1605207515.8,286047017.8,P
1605207535.6,286047026.7,Y
1605207555.5,286047017.0,P
1605207575.3,286047019.7,P
1605207595.1,286047019.0,P
